Home > Weather > Inglewood > Past weeks

Flag for U.S.A. Weather for the Past 2 Weeks in Inglewood, California, U.S.A.

Now
79 °F

Sunny.


Feels Like: 78 °F
Forecast: 57 / 82 °F
Wind: 9 mph from West

Location: Hawthorne Municipal Airport

Current Time: Feb 11, 2016 at 4:29:06 PM

Latest Report: Feb 11, 2016 at 2:53 PM


Visibility: 10 mi

Pressure: 30.05 "Hg

Humidity: 25%

Dew point: 40 °F

Location of InglewoodLocation

Historic Weather in Inglewood — Graph

°F

Inglewood Temperature Yesterday

Maximum temperature yesterday: 87 °F (at 12:53 PM)
Minimum temperature yesterday: 58 °F (at 3:53 AM)
Average temperature yesterday: 69 °F

High & Low Weather Summary for the Past Weeks

 TemperatureHumidityPressure
High89 °F (Feb 9, 12:53 PM)93% (Jan 31, 8:58 AM)30.37 "Hg (Jan 31, 8:58 AM)
Low43 °F (Feb 2, 5:53 AM)6% (Feb 9, 1:53 PM)29.62 "Hg (Jan 31, 3:53 PM)
Average61 °F42%30.12 "Hg
* Reported Jan 27 2:53 PM — Feb 11 2:53 PM, Inglewood, Weather by CustomWeather, © 2016

Note: Actual official high and low records may vary slightly from our data, if they occured in-between our weather recording intervals... More about our weather records

Advertising

Inglewood Weather History for the Previous 24 Hours

 ConditionsComfort  
Time TempWeatherWind HumidityBarometerVisibility
2:53 PM
Thu, Feb 11
79 °FSunny.9 mph25%30.05 "Hg10 mi
1:53 PM80 °FSunny.9 mph24%30.05 "Hg1 mi
12:53 PM85 °FSunny.No wind10%30.06 "Hg10 mi
11:53 AM83 °FSunny.No wind11%30.09 "Hg10 mi
10:53 AM80 °FSunny.No wind15%30.12 "Hg10 mi
9:53 AM77 °FSunny.No wind16%30.12 "Hg10 mi
8:53 AM71 °FSunny.No wind23%30.11 "Hg10 mi
7:53 AM62 °FSunny.No wind32%30.09 "Hg10 mi
6:53 AM60 °FSunny.No wind35%30.08 "Hg10 mi
5:53 AM59 °FClear.No wind38%30.07 "Hg10 mi
4:53 AM57 °FClear.No wind53%30.07 "Hg10 mi
3:53 AM57 °FClear.No wind51%30.07 "Hg10 mi
2:53 AM57 °FClear.No wind53%30.07 "Hg10 mi
1:53 AM57 °FClear.No wind53%30.08 "Hg10 mi
12:53 AM59 °FClear.No wind49%30.08 "Hg10 mi
11:53 PM
Wed, Feb 10
61 °FClear.No wind46%30.09 "Hg10 mi
10:53 PM63 °FClear.No wind41%30.10 "Hg10 mi
9:53 PM63 °FClear.No wind43%30.09 "Hg10 mi
8:53 PM65 °FClear.No wind40%30.09 "Hg10 mi
7:53 PM67 °FClear.No wind35%30.09 "Hg10 mi
6:53 PM69 °FClear.5 mph30%30.09 "Hg10 mi
5:53 PM70 °FClear.5 mph29%30.08 "Hg10 mi
4:53 PM73 °FSunny.8 mph30%30.07 "Hg10 mi
Weather by CustomWeather, © 2016

See weather overviewHow to use our weather pages